[Show "Revision History"] [Show "General Page Infos"] [Show "Page hits and edits"]

Revision History

Showing page edit history entries from 1 to 82 out of 82 entries total. (5 | 10 | 25 | 50 | 100 | 200 items per page)

# Date Size Editor Comment Action
82 2012-05-10 12:42:16 35029 to previous JukkaZitting Mark also the April report as closed. view
81 2012-04-12 23:54:37 35738 to previous JukkaZitting Tweak wording :-) view
80 2012-04-12 23:52:12 35743 to previous JukkaZitting Finishing touches, including simple spell-checking and minor formatting view
79 2012-04-12 22:17:41 34807 to previous JukkaZitting   view
78 2012-04-12 21:38:59 34793 to previous JukkaZitting Celix is low activity, but they have a pretty good picture of where they are and where they want to go view
77 2012-04-12 21:01:14 34799 to previous JukkaZitting Categorize Kafka based on their report. Looks like they aren't too far from becoming ready to graduate. view
76 2012-04-12 19:34:33 34799 to previous JukkaZitting Categorize Flex and add notes about infrastructure view
75 2012-04-12 18:44:02 33502 to previous JukkaZitting EasyAnt still at low activity, but they seem to have a plan on how to proceed view
74 2012-04-12 18:39:24 33502 to previous JukkaZitting DirectMemory is still learning the ropes, needs a release view
73 2012-04-12 18:37:30 33502 to previous JukkaZitting Categorize Chuckwa based on their report view
72 2012-04-12 16:53:49 33506 to previous JukkaZitting Categorize Kitty based on their report and project activity view
71 2012-04-12 16:33:53 33513 to previous JukkaZitting Mesos is working on first release view
70 2012-04-12 16:23:23 33512 to previous JukkaZitting ODF Toolkit reports low diversity, looks good otherwise view
69 2012-04-12 16:06:49 33512 to previous JukkaZitting Oozie has active committers from Yahoo and Cloudera view
68 2012-04-12 09:41:13 33512 to previous RossGardler Sign of AOO report view
67 2012-04-11 23:54:12 33502 to previous JukkaZitting Categorize Giraph and JSPWiki, cleanup JSPWiki report view
66 2012-04-11 23:14:52 33637 to previous JukkaZitting Categorize AWF, reorder to alphabetical order (renamed from Deft) view
65 2012-04-11 23:02:57 33632 to previous JukkaZitting DeviceMap and Syncope are still in their first quarter view
64 2012-04-11 22:58:32 33634 to previous JukkaZitting Draft community section, note the last Rave release before graduation view
63 2012-04-11 20:18:33 32733 to previous JukkaZitting Categorize Tashi, uniform report formatting view
62 2012-04-11 20:12:25 32778 to previous JukkaZitting Draft the report on release-related topics view
61 2012-04-11 18:09:47 30944 to previous JukkaZitting Classify VXQuery view
60 2012-04-10 21:48:40 30945 to previous JukkaZitting Sign off and classify the Cordova report view
59 2012-04-10 21:46:27 30940 to previous JukkaZitting Review Any23, add incubating since -info view
58 2012-04-06 20:39:04 30871 to previous David Fisher   view
57 2012-04-06 18:49:35 30865 to previous MichaelStroucken add tashi report view
56 2012-04-06 14:52:26 28349 to previous JukkaZitting Unify formatting of podling reports. No content changes. view
55 2012-04-06 14:24:03 27860 to previous GregReddin sign off flex report view
54 2012-04-06 08:09:09 27851 to previous JukkaZitting Template and TODOs for categorizing podling reports view
53 2012-04-06 06:56:22 26958 to previous BertrandDelacretaz I agree with the modified report, removed my comment view
52 2012-04-06 00:01:12 27076 to previous Mohammad K Islam   view
51 2012-04-05 22:34:20 25981 to previous AlexHarui   view
50 2012-04-05 20:15:07 24929 to previous brianleroux   view
49 2012-04-05 20:05:06 24139 to previous KevanMiller   view
48 2012-04-05 19:09:40 24133 to previous JoeSchaefer +1 the aoo oob report view
47 2012-04-05 17:28:33 24128 to previous robweir   view
46 2012-04-05 17:27:43 24131 to previous robweir   view
45 2012-04-05 16:10:09 23056 to previous AlessandroNovarini Added Kitty activity description view
44 2012-04-05 15:37:32 22200 to previous KevanMiller   view
43 2012-04-05 14:02:03 22193 to previous BertrandDelacretaz   view
42 2012-04-05 13:54:33 22063 to previous BertrandDelacretaz   view
41 2012-04-05 10:51:20 21533 to previous SimoneTripodi   view
40 2012-04-05 10:47:56 21483 to previous SimoneTripodi   view
39 2012-04-05 10:24:03 20736 to previous NickBurch sign off ODF report view
38 2012-04-05 06:42:46 20724 to previous AlexanderBroekhuis   view
37 2012-04-05 00:58:23 15936 to previous robweir   view
36 2012-04-04 22:42:15 15683 to previous TomWhite2 Signed Mesos report view
35 2012-04-04 21:57:25 15674 to previous MohammadNour   view
34 2012-04-04 21:48:10 15678 to previous EmmanuelLecharny   view
33 2012-04-04 21:27:56 15664 to previous MohammadNour - Updated AWF scheduled report for this month view
32 2012-04-04 20:47:58 15258 to previous MohammadNour   view
31 2012-04-04 18:10:15 15258 to previous andrew   view
30 2012-04-04 18:09:11 15252 to previous andrew   view
29 2012-04-04 18:07:49 15222 to previous andrew   view
28 2012-04-04 18:04:56 14492 to previous andrew Re-entering AWF report without messing up other things in the process this time. view
27 2012-04-04 18:04:16 13803 to previous andrew The person who added AWF updates also messed up other reports. view
26 2012-04-04 17:07:38 16583 to previous EmmanuelLecharny   view
25 2012-04-04 17:03:01 13803 to previous AlexHarui   view
24 2012-04-04 16:43:34 10827 to previous HarryMetske added JSPWiki text view
23 2012-04-04 11:33:19 10201 to previous TimWilliams Signoff view
22 2012-04-04 10:18:27 10214 to previous RaffaeleGuidi   view
21 2012-04-04 07:40:37 9229 to previous StefanBodewig sign off EasyAnt report view
20 2012-04-03 20:51:03 9221 to previous ChrisMattmann Sign off Giraph view
19 2012-04-03 19:35:10 9211 to previous AlanCabrera   view
18 2012-04-03 19:29:49 9202 to previous ChrisDouglas   view
17 2012-04-03 19:15:22 9183 to previous JakobHoman   view
16 2012-04-03 18:31:28 8947 to previous Joe Stein kafka project update view
15 2012-04-03 18:25:10 7933 to previous robweir   view
14 2012-04-03 15:42:47 7072 to previous NicolasLalevée   view
13 2012-04-03 07:26:48 6352 to previous BerndFondermann   view
12 2012-04-03 05:15:56 6154 to previous OwenOmalley   view
11 2012-04-02 21:58:27 5624 to previous ChrisMattmann - sign off on Any23; add note about GeoSPARQL view
10 2012-04-02 21:47:20 5470 to previous EricYang   view
9 2012-04-02 21:46:14 5472 to previous EricYang   view
8 2012-04-02 12:24:39 5134 to previous LewisJohnMcgibbney   view
7 2012-04-02 03:26:49 3688 to previous TillWestmann   view
6 2012-04-01 19:44:24 2972 to previous JukkaZitting Fold and spell-check first report view
5 2012-03-29 04:07:06 2967 to previous EricYang   view
4 2012-03-22 21:57:01 2403 to previous JukkaZitting Lucy graduated, so no need for more Incubator reports from them view
3 2012-03-15 19:17:49 2485 to previous JukkaZitting   view
2 2012-03-15 19:16:43 2480 to previous JukkaZitting Add placeholders based on ReportingSchedule view
1 2012-03-15 19:04:36 1181 JukkaZitting Copy report template view